Vorticity
3 3 9 -1 0 -1 -0 3 8 7 4 4 5 6 6 6 6 4 4 5 4 1 1 1 2 6 1 1 6 8 8 11 12
3 3 5 3 1 0 1 -0 4 7 6 3 5 5 5 5 5 4 4 4 4 5 3 1 2 4 2 3 6 6 5 6 6
5 3 4 7 3 2 1 1 1 4 7 5 3 5 5 5 5 5 4 5 7 7 5 4 4 4 2 5 6 3 4 3 4
8 6 4 4 4 3 3 2 2 2 4 6 4 4 5 5 5 5 6 5 5 5 5 4 3 4 3 6 6 4 4 4 6
7 7 6 4 4 4 4 3 2 2 2 5 5 4 4 4 5 4 3 3 4 4 4 4 4 2 4 5 6 2 3 4 7
3 8 7 7 5 5 4 4 4 3 2 3 4 5 5 5 4 4 3 4 3 3 3 3 3 4 6 5 5 3 3 4 8
1 3 7 6 8 6 6 5 4 4 3 2 3 4 4 5 5 4 4 4 4 3 4 4 4 5 4 5 7 2 4 7 8
4 1 3 6 5 8 6 6 5 4 4 3 3 3 3 4 5 5 5 5 4 4 4 4 4 4 4 5 7 1 6 7 5
6 5 3 3 4 5 7 7 6 5 4 4 3 3 3 3 4 4 5 6 5 5 6 5 5 5 6 5 6 1 6 7 6
8 9 4 7 2 2 5 6 8 7 5 5 4 4 3 2 3 4 5 6 8 8 6 6 8 7 6 5 4 2 4 4 4
7 6 10 10 5 4 1 4 5 8 7 5 5 4 4 3 2 3 4 5 6 6 4 6 7 8 6 6 2 3 3 4 3
8 8 6 6 9 10 5 3 3 5 7 7 5 5 4 4 4 2 3 4 5 5 5 5 6 7 7 6 2 2 2 4 2
6 5 8 6 5 6 9 8 4 3 4 6 7 5 4 3 4 4 2 2 4 5 5 3 5 7 7 5 3 -0 3 3 2
6 5 5 8 9 5 5 6 11 6 2 4 7 5 6 4 4 4 5 3 2 3 5 5 4 5 5 5 5 2 -1 2 3
6 6 4 6 2 8 6 7 7 7 10 2 4 7 5 6 4 3 4 4 3 2 4 5 5 5 6 5 5 5 1 1 1
6 5 5 5 -0 4 8 8 9 8 6 13 5 5 7 7 5 4 3 4 4 4 3 3 5 6 7 6 5 5 4 3 2
6 6 5 3 4 2 5 8 5 7 10 7 12 5 4 6 8 6 3 3 3 4 4 4 3 5 6 7 6 5 4 4 3
5 4 3 4 6 6 5 4 5 5 7 10 6 11 6 4 7 9 5 4 4 4 3 4 4 4 4 5 5 4 4 4 4
4 4 5 7 8 4 4 5 6 6 4 6 7 13 11 9 4 7 9 4 3 4 4 3 3 3 4 3 3 3 3 3 3
7 7 8 9 7 6 7 9 10 11 9 7 8 4 9 9 3 4 7 9 6 4 1 2 2 3 3 3 3 3 3 3 3
Height
5837 5840 5842 5844 5846 5848 5850 5851 5853 5854 5855 5856 5858 5859 5860 5862 5864 5865 5867 5870 5872 5873 5875 5875 5876 5876 5877 5878 5879 5879 5879 5879 5879
5833 5836 5839 5841 5843 5846 5848 5850 5852 5853 5854 5856 5857 5858 5860 5862 5863 5864 5867 5869 5871 5872 5874 5874 5876 5876 5877 5878 5878 5878 5878 5878 5877
5830 5833 5835 5838 5840 5843 5845 5848 5850 5851 5853 5854 5856 5858 5860 5861 5863 5865 5866 5868 5869 5871 5872 5873 5875 5875 5876 5877 5877 5877 5877 5877 5877
5827 5829 5831 5834 5836 5840 5843 5845 5847 5849 5851 5852 5854 5856 5858 5860 5862 5864 5866 5867 5868 5870 5870 5871 5873 5874 5875 5876 5876 5876 5876 5876 5876
5822 5825 5827 5830 5832 5835 5839 5842 5844 5846 5848 5850 5851 5853 5856 5859 5860 5862 5864 5866 5867 5868 5869 5869 5871 5872 5873 5874 5874 5874 5874 5875 5875
5817 5820 5822 5825 5828 5831 5834 5838 5840 5843 5845 5847 5849 5851 5853 5856 5858 5860 5862 5864 5864 5866 5867 5867 5869 5870 5870 5871 5872 5873 5873 5873 5873
5810 5814 5817 5820 5823 5826 5829 5833 5836 5839 5842 5844 5845 5848 5850 5852 5855 5857 5859 5861 5862 5863 5864 5865 5866 5867 5868 5869 5870 5871 5871 5871 5872
5804 5808 5811 5814 5818 5820 5824 5827 5831 5834 5837 5840 5842 5844 5846 5848 5851 5853 5856 5857 5858 5860 5862 5863 5863 5864 5865 5866 5868 5869 5869 5869 5869
5796 5800 5804 5808 5811 5815 5818 5821 5826 5828 5831 5834 5837 5840 5842 5844 5846 5848 5851 5853 5855 5856 5858 5859 5860 5861 5862 5864 5865 5866 5866 5867 5866
5788 5793 5797 5800 5805 5809 5812 5816 5819 5823 5826 5829 5831 5835 5837 5840 5842 5844 5846 5849 5851 5852 5853 5854 5856 5858 5859 5860 5861 5862 5862 5863 5864
5781 5785 5789 5793 5797 5802 5806 5809 5813 5817 5820 5824 5826 5830 5832 5835 5838 5840 5842 5844 5846 5848 5849 5850 5852 5854 5855 5857 5858 5858 5859 5859 5860
5773 5777 5781 5785 5789 5793 5799 5802 5806 5810 5813 5817 5820 5824 5827 5830 5833 5835 5837 5839 5841 5843 5845 5847 5848 5849 5851 5852 5853 5854 5855 5856 5856
5764 5769 5773 5777 5781 5785 5791 5794 5798 5802 5806 5809 5813 5817 5820 5823 5827 5830 5832 5834 5836 5838 5840 5842 5844 5845 5846 5847 5848 5849 5850 5852 5852
5755 5759 5764 5768 5773 5777 5782 5786 5790 5793 5797 5802 5806 5809 5813 5816 5821 5823 5826 5828 5830 5832 5835 5837 5838 5840 5841 5842 5844 5845 5845 5846 5847
5745 5750 5755 5759 5763 5768 5772 5777 5780 5784 5788 5793 5797 5801 5805 5809 5812 5816 5819 5822 5824 5826 5828 5831 5832 5834 5835 5837 5838 5839 5840 5840 5841
5735 5741 5746 5750 5754 5759 5763 5766 5771 5774 5779 5784 5789 5792 5796 5800 5804 5808 5811 5814 5817 5819 5821 5823 5825 5827 5828 5830 5831 5831 5833 5834 5834
5725 5731 5736 5740 5744 5748 5753 5758 5761 5764 5770 5774 5777 5782 5787 5790 5795 5799 5802 5806 5809 5811 5814 5815 5818 5819 5821 5822 5823 5824 5825 5826 5826
5714 5720 5725 5730 5735 5739 5743 5747 5751 5754 5759 5763 5766 5771 5776 5781 5784 5788 5792 5795 5799 5803 5805 5807 5809 5811 5813 5813 5815 5816 5817 5817 5818
5702 5708 5713 5718 5724 5728 5732 5737 5740 5744 5749 5752 5755 5760 5764 5770 5774 5777 5781 5784 5787 5792 5795 5798 5800 5802 5804 5805 5806 5807 5808 5808 5809
5691 5696 5702 5707 5712 5717 5721 5725 5729 5733 5737 5740 5745 5748 5752 5757 5762 5765 5770 5772 5776 5778 5782 5787 5789 5791 5793 5794 5795 5797 5799 5800 5800